Flag for Russia Weather past 2 weeks in Chelyabinsk, Russia

Now
50 °F

Clear.


Feels Like: 45 °F
Forecast: 34 / 49 °F
Wind: 13 mph from West

Location: Chelyabinsk-Balandino


UV Index: 3 (Moderate)

Visibility: 10 mi


Pressure: 29.83 "Hg

Humidity: 43%

Dew point: 28 °F

Location of ChelyabinskLocation

Historic Weather in Chelyabinsk

°F

Chelyabinsk temperature yesterday

Maximum temperature yesterday: 63 °F (at 2:00 PM)
Minimum temperature yesterday: 36 °F (at 2:00 AM)
Average temperature yesterday: 50 °F

Past Weeks' High & Low Weather Summary

 TemperatureHumidityPressure
High66 °F (Apr 17, 3:30 PM)100% (Apr 6, 5:00 AM)30.42 "Hg (Apr 6, 5:00 AM)
Low18 °F (Apr 11, 7:30 AM)18% (Apr 15, 4:00 PM)29.45 "Hg (Apr 9, 5:30 AM)
Average39 °F57%30.04 "Hg
* Reported Apr 6 3:00 AM — Apr 21 3:00 AM, Chelyabinsk, Weather by CustomWeather, © 2014

Note: Actual official high and low records may vary slightly from our data, if they occured in-between our weather recording intervals... More about our weather records

Advertising

Historic Weather Conditions — Data for Previous 24 hours

 ConditionsComfort  
Time TempWeatherWind HumidityBarometerVisibility
3:00 AM
Apr 21
50 °FClear.13 mph40%29.86 "Hg10 mi
2:30 AM50 °FClear.13 mph40%29.86 "Hg10 mi
2:00 AM50 °FClear.15 mph40%29.86 "Hg10 mi
1:30 AM52 °FClear.15 mph38%29.89 "Hg10 mi
1:00 AM52 °FClear.15 mph38%29.89 "Hg10 mi
12:30 AM50 °FClear.10 mph40%29.89 "Hg10 mi
12:00 AM50 °FClear.13 mph40%29.92 "Hg10 mi
11:30 PM
Apr 20
48 °FClear.13 mph43%29.92 "Hg10 mi
11:00 PM48 °FClear.10 mph43%29.92 "Hg10 mi
10:30 PM46 °FClear.10 mph46%29.95 "Hg10 mi
10:00 PM50 °FClear.10 mph40%29.95 "Hg10 mi
9:30 PM52 °FClear.13 mph38%29.95 "Hg10 mi
9:00 PM55 °FSunny.10 mph31%29.92 "Hg10 mi
8:30 PM55 °FSunny.15 mph33%29.95 "Hg10 mi
8:00 PM57 °FSunny.15 mph31%29.95 "Hg10 mi
7:30 PM59 °FSunny.13 mph29%29.95 "Hg10 mi
7:00 PM59 °FSunny.17 mph29%29.95 "Hg10 mi
6:30 PM61 °FSunny.15 mph27%29.98 "Hg10 mi
6:00 PM59 °FSunny.20 mph29%29.98 "Hg10 mi
5:30 PM61 °FSunny.17 mph25%29.98 "Hg10 mi
5:00 PM63 °FSunny.17 mph22%29.98 "Hg10 mi
4:30 PM63 °FSunny.17 mph22%30.01 "Hg10 mi
4:00 PM61 °FSunny.20 mph25%30.01 "Hg10 mi
3:30 PM63 °FSunny.20 mph24%30.01 "Hg10 mi
3:00 PM63 °FSunny.20 mph22%30.04 "Hg10 mi
2:30 PM63 °FSunny.17 mph24%30.04 "Hg10 mi
2:00 PM63 °FSunny.17 mph25%30.04 "Hg10 mi
1:30 PM61 °FSunny.13 mph25%30.07 "Hg10 mi
1:00 PM61 °FSunny.15 mph27%30.07 "Hg10 mi
12:30 PM59 °FSunny.15 mph31%30.07 "Hg10 mi
12:00 PM59 °FSunny.10 mph25%30.09 "Hg10 mi
11:30 AM57 °FSunny.10 mph39%30.09 "Hg10 mi
11:00 AM55 °FSunny.10 mph38%30.09 "Hg10 mi
10:30 AM54 °FSunny.10 mph41%30.09 "Hg10 mi
10:00 AM50 °FSunny.10 mph43%30.09 "Hg10 mi
9:30 AM48 °FSunny.13 mph43%30.09 "Hg10 mi
8:30 AM43 °FSunny.10 mph57%30.12 "Hg10 mi
8:00 AM41 °FSunny.8 mph61%30.09 "Hg10 mi
7:30 AM39 °FSunny.8 mph61%30.09 "Hg10 mi
7:00 AM39 °FSunny.10 mph61%30.09 "Hg10 mi
6:30 AM39 °FClear.13 mph61%30.09 "Hg10 mi
6:00 AM39 °FClear.13 mph61%30.09 "Hg10 mi
5:30 AM39 °FClear.13 mph61%30.09 "Hg10 mi
5:00 AM39 °FClear.13 mph61%30.09 "Hg10 mi
4:30 AM37 °FClear.10 mph65%30.12 "Hg10 mi
4:00 AM37 °FClear.10 mph65%30.12 "Hg10 mi
Weather by CustomWeather, © 2014

See weather overview